Regional Weather Roundup
Issued by NWS

Home | Current Version | Previous Version | Text Only | Print | Product List | Glossary Off
Versions: 1 2 3 4 5 6 7 8 9 10 11 12 13 14 15 16 17 18 19 20 21 22 23 24 25 26 27 28 29 30 31 32 33 34 35 36 37 38 39 40 41 42 43 44 45 46 47 48 49 50

000
ASUS43 KLOT 032321
RWRIL

ILLINOIS REGIONAL WEATHER ROUNDUP
NATIONAL WEATHER SERVICE CHICAGO/ROMEOVILLE IL
600 PM CDT MON AUG 03 2015

NOTE: "FAIR" INDICATES FEW OR NO CLOUDS BELOW 12,000 FEET WITH NO
SIGNIFICANT WEATHER AND/OR OBSTRUCTIONS TO VISIBILITY.

* THESE STATIONS ARE NOT UNDER NWS QUALITY CONTROL. THEY ALSO MAY NOT
  REPORT WEATHER SUCH AS PRECIPITATION OR FOG.

ILZ001-002-007-009-015-016-024-040000-
NORTHWEST ILLINOIS

CITY           SKY/WX    TMP DP  RH WIND       PRES   REMARKS
MOLINE         SUNNY     81  52  36 W12       29.89F HX  80
STERLING*      SUNNY     79  54  41 W10       29.86F
SAVANNA*       SUNNY     80  49  34 W10G17    29.88F
$$

ILZ003-004-008-010-011-017-018-040000-
NORTH CENTRAL ILLINOIS

CITY           SKY/WX    TMP DP  RH WIND       PRES   REMARKS
ROCKFORD       SUNNY     80  50  34 W10       29.88S HX  80
FREEPORT*      SUNNY     78  51  39 W12       29.90S
ROCHELLE*      SUNNY     78  54  42 W12G17    29.89S
DE KALB*       SUNNY     78  52  40 W14G20    29.89S
PERU*          SUNNY     78  49  35 W10       29.89F
$$

ILZ005-006-012>014-019>023-040000-
NORTHEAST ILLINOIS

CITY           SKY/WX    TMP DP  RH WIND       PRES   REMARKS
CHICAGO-OHARE  MOSUNNY   79  49  34 W14       29.85S
CHICAGO-MIDWAY MOSUNNY   82  49  31 W15G22    29.85S HX  81
AURORA         SUNNY     79  54  41 W6        29.88S
LANSING*       SUNNY     80  48  32 NW12      29.86S
JOLIET*        SUNNY     82  51  34 W8G17     29.88R HX  81
WAUKEGAN       SUNNY     78  50  37 W9        29.84S
DUPAGE AIRPORT SUNNY     79  49  34 W13       29.87R
KANKAKEE*      SUNNY     81  53  37 NW9       29.88R HX  80
WHEELING       SUNNY     80  48  32 NW15      29.86S
MORRIS*        SUNNY     79  53  41 NW10G17   29.87S
ROMEOVILLE*    SUNNY     78  49  35 W10       29.87S
NORTHERLY ISL    N/A     81  43  26 W9          N/A
$$

LMZ740>746-040000-
SOUTHERN LAKE MICHIGAN

STATION/POSITION SKY/WX   TEMP    WIND        PRES    VSBY  WAVE
                          AIR SEA DIR/SP/G                  HT/PER
                          (F)     (DEG/KT/KT) (MB)    (MI)  (FT/S)
HARRISON CRIB              79     290/ 12/ 17   N/A
BURNHAM HARBOR             81     310/  8/ 17   N/A
CALUMET HARBOR             75      90/  7/ 10   N/A
BURNS HARBOR               76      40/  4/  6 1011.5S
MICHIGAN CITY              77     360/  2/  3   N/A
MICHIGAN CITY 6N           76 75   30/  2/  2   N/A           2/ 4
ST. JOSEPH                 73 73   20/ 10/ 12   N/A           2/ 3
$$

ILZ025>027-034>036-040-047-049-050-058-095>099-040000-
WEST-CENTRAL ILLINOIS

CITY           SKY/WX    TMP DP  RH WIND       PRES   REMARKS
QUINCY         SUNNY     82  63  52 NW6       29.91S HX  83
GALESBURG*     SUNNY    N/A N/A N/A NW6       29.91
MACOMB*        SUNNY     81  60  48 NW5       29.92F HX  81
JACKSONVILLE*  MOSUNNY   83  67  58 W6        29.90S HX  86
PITTSFIELD*    MOSUNNY   83  64  52 W8        29.92S HX  85
$$

ILZ028>032-037-038-041>044-048-051>054-059>061-040000-
CENTRAL ILLINOIS

CITY           SKY/WX    TMP DP  RH WIND       PRES   REMARKS
PONTIAC        SUNNY     79  59  50 NW13      29.90S HX  80
BLOOMINGTON    SUNNY     82  60  47 W8        29.91F HX  82
DECATUR        MOSUNNY   84  62  47 NW12      29.89F HX  85
PEORIA         SUNNY     83  59  44 NW6       29.89F HX  83
LACON*         SUNNY     79  53  40 NW7       29.89F
LINCOLN*       SUNNY     84  58  41 NW5       29.88F HX  83
SPRINGFIELD    SUNNY     83  64  52 NW8       29.89F HX  84
TAYLORVILLE    SUNNY     81  66  61 NW8       29.89F HX  83
$$

ILZ033-039-045-046-055>057-062-063-040000-
EAST-CENTRAL ILLINOIS

CITY           SKY/WX    TMP DP  RH WIND       PRES   REMARKS
CHAMPAIGN      MOSUNNY   82  64  54 W10       29.89S HX  83
DANVILLE*      SUNNY     81  67  62 W9        29.85R HX  83
RANTOUL*       SUNNY     83  61  46 NW10      29.89R HX  84
MATTOON        SUNNY     86  62  44 W10       29.88S HX  86
PARIS*         SUNNY     84  64  50 NW12G17   29.87S HX  86
$$

ILZ079-100>102-040000-
SOUTHWEST ILLINOIS

CITY           SKY/WX    TMP DP  RH WIND       PRES   REMARKS
ALTON          MOSUNNY   84  66  54 NW6       29.89F HX  86
BELLEVILLE     MOSUNNY   90  71  54 N5        29.87F HX  96
CAHOKIA*       MOSUNNY   93  65  39 NE5       29.88F HX  95
SPARTA*        MOSUNNY   90  69  51 NW5       29.90F HX  94
$$

ILZ064>066-069>071-074>076-080>082-084>086-088>090-092>094-040000-
SOUTH-CENTRAL ILLINOIS

CITY           SKY/WX    TMP DP  RH WIND       PRES   REMARKS
CARBONDALE     MOSUNNY   90  73  57 W6        29.89S HX  98
CAIRO*         MOSUNNY   89  72  57 W5        29.89S HX  96
EFFINGHAM*     MOSUNNY   87  61  41 W9        29.90S HX  87
MARION         PTSUNNY   91  72  52 NW8       29.90S HX  98
MT. VERNON     MOSUNNY   90  68  48 N5        29.89S HX  93
CENTRALIA*     MOSUNNY   87  66  49 NW12      29.89F HX  89
SALEM*         MOSUNNY   89  67  47 NW7       29.90S HX  91
METROPOLIS*    MOSUNNY   91  73  57 W5        29.90S HX  99
$$

ILZ067-068-072-073-078-083-087-091-040000-
SOUTHEAST ILLINOIS

CITY           SKY/WX    TMP DP  RH WIND       PRES   REMARKS
LAWRENCEVILLE  MOSUNNY   88  67  49 NW9       29.86S HX  91
FLORA*         MOSUNNY   87  67  50 NW9       29.89S HX  90
FAIRFIELD*     MOSUNNY   88  70  56 NW5       29.87S HX  93
HARRISBURG*    SUNNY     91  70  49 NW6       29.90S HX  96
ROBINSON*      MOSUNNY   85  69  58 NW6       29.87S HX  89
CARMI*         SUNNY     89  65  45 W10       29.87S HX  90
$$

ABBREVIATIONS USED IN REMARKS
   TC - TEMPERATURE IN CELSIUS
  WCI - WIND CHILL INDEX
   HX - HEAT INDEX
  VSB - VISIBILITY
$$




USA.gov is the U.S. government's official web portal to all federal, state and local government web resources and services.